FENGYUN 1C DEB, 30246

Orbit data source: Space-Track

FENGYUN 1C DEB, 30246 is space debris in SSO originally from a launch on Mon, 10 May 1999 UTC launched from the Taiyaun Space Center, China (TSC). Fengyun 1C debris stems from the Chinese weather satellite Fengyun-1C, which was intentionally destroyed by a Chinese anti-satellite missile in 2007. This event dramatically increased the amount of space debris, with thousands of trackable fragments posing hazards to satellites and human spaceflight. The Fengyun 1C debris cloud has become a focal point in discussions about space sustainability and the need for international regulations to prevent the creation of new debris.

Loading next visibility...
Identifier
30246, 1999-025XF
Orbit
SSO
Country
Flag of CNCN / PRC
Related business
Manufacturer
Unknown
Mission
Spacecraft
Bus & Motor
Unknown
Mass
Unknown
Launch date (UTC)
1999-05-10 (27 years ago)
Launch vehicle
Unknown
Launch site
Taiyaun Space Center, China (TSC)
Object type
Payload
Rocket body
Debris
Shape & HBR
Unknown shape, 0.1 m
Radar Cross Section
Medium (>0.1 m² and <1 m²)

Expand to show TLE details & history
Last TLE update: 1 day ago

TLE from 1 day ago
0 FENGYUN 1C DEB
1 30246U 99025XF  26207.26914957  .00000336  00000-0  48550-3 0  9997
2 30246  98.7020 323.3931 0368833 253.0849 132.7831 13.37137199951542
Epoch: 2026-07-26T06:27Z
TLE epoch observation values (Epoch: 2026-07-26T06:27:34.522Z)
Latitude
28.55261°
Longitude
-82.22391°
Altitude
1,316.564 km
Speed
7.108 km/s
True Right ascension
21h 14m 33s
True Declination
28° 25' 08"
Sunlit
Object was in full shadow at epoch
Visualization orbit readout
Latitude
Unknown
Longitude
Unknown
Altitude
Unknown
Speed
Unknown
Apparent Right ascension
Unknown
Apparent Declination
Unknown
Sunlit
N/A
Visualization observer readout
Local Sidereal Time
23:34:00
Azimuth
Unknown
Elevation
Unknown
Doppler factor
Unknown
Orbital elements
Apogee altitude
1,393.681 km
Perigee altitude
840.773 km
Semi-major axis
7,495.364 km
Eccentricity
0.03688
Inclination
98.702°
RAAN
323.3931°
Arg. of periapsis
253.0849°
True anomaly
135.78939°
Mean anomaly
132.7831°
Eccentric anomaly
134.29565°
Mean motion
3.34468 °/min
Orbital period
107.63 mins
BSTAR
0.0004855
Loading maneuver chart data...
Computing Atmospheric mass density...
Loading historical data...
Loading historical data...
Loading historical data...
Loading historical data...
Loading historical data...
Loading historical data...
Loading historical data...

Documentation

Showing up to 5 results
|